Hourly Weather Bujumbura

Today, 7 August, Friday

Time Temperature Precipitation Wind Pressure Humidity
00:00 +25°C° 0 mm 1 mps 694 mmHg 60%
01:00 +24°C° 0 mm 1 mps 694 mmHg 60%
02:00 +24°C° 0 mm 1 mps 693 mmHg 60%
03:00 +24°C° 0 mm 1 mps 693 mmHg 60%
04:00 +24°C° 0 mm 1 mps 693 mmHg 59%
05:00 +23°C° 0 mm 1 mps 693 mmHg 59%
06:00 +25°C° 0 mm 1 mps 694 mmHg 54%
07:00 +27°C° 0 mm 1 mps 694 mmHg 50%
08:00 +29°C° 0 mm 1 mps 695 mmHg 43%
09:00 +31°C° 0 mm 1 mps 695 mmHg 38%
10:00 +33°C° 0 mm 1 mps 695 mmHg 33%
11:00 +35°C° 0 mm 1 mps 695 mmHg 28%
12:00 +35°C° 0 mm 2 mps 694 mmHg 32%
13:00 +34°C° 0 mm 3 mps 693 mmHg 35%
14:00 +33°C° 0 mm 4 mps 692 mmHg 42%
15:00 +33°C° 0 mm 4 mps 692 mmHg 42%
16:00 +33°C° 0 mm 4 mps 692 mmHg 41%
17:00 +33°C° 0 mm 3 mps 692 mmHg 41%
18:00 +30°C° 0 mm 3 mps 692 mmHg 47%
19:00 +28°C° 0 mm 3 mps 693 mmHg 52%
20:00 +26°C° 0 mm 2 mps 693 mmHg 57%
21:00 +26°C° 0 mm 2 mps 693 mmHg 58%
22:00 +26°C° 0 mm 1 mps 694 mmHg 59%
23:00 +25°C° 0 mm 1 mps 694 mmHg 60%

Tomorrow, 8 August, Saturday

Time Temperature Precipitation Wind Pressure Humidity
00:00 +25°C° 0 mm 1 mps 694 mmHg 60%
01:00 +24°C° 0 mm 1 mps 693 mmHg 60%
02:00 +24°C° 0 mm 1 mps 693 mmHg 59%
03:00 +24°C° 0 mm 1 mps 693 mmHg 60%
04:00 +24°C° 0 mm 1 mps 693 mmHg 61%
05:00 +23°C° 0 mm 1 mps 693 mmHg 62%
06:00 +25°C° 0 mm 1 mps 694 mmHg 58%
07:00 +26°C° 0 mm 1 mps 695 mmHg 53%
08:00 +28°C° 0 mm 2 mps 695 mmHg 48%
09:00 +29°C° 0 mm 2 mps 695 mmHg 45%
10:00 +31°C° 0 mm 3 mps 695 mmHg 42%
11:00 +34°C° 0 mm 4 mps 695 mmHg 38%
12:00 +33°C° 0 mm 4 mps 694 mmHg 38%
13:00 +33°C° 0 mm 4 mps 693 mmHg 37%
14:00 +33°C° 0 mm 4 mps 692 mmHg 37%
15:00 +33°C° 0 mm 4 mps 692 mmHg 38%
16:00 +32°C° 0 mm 4 mps 692 mmHg 40%
17:00 +32°C° 0 mm 4 mps 691 mmHg 41%
18:00 +29°C° 0 mm 3 mps 692 mmHg 46%
19:00 +27°C° 0 mm 3 mps 692 mmHg 50%
20:00 +26°C° 0 mm 2 mps 693 mmHg 55%
21:00 +25°C° 0 mm 2 mps 693 mmHg 55%
22:00 +25°C° 0 mm 2 mps 693 mmHg 55%
23:00 +25°C° 0 mm 1 mps 694 mmHg 54%

Day after tomorrow, 9 August, Sunday

Time Temperature Precipitation Wind Pressure Humidity
00:00 +24°C° 0 mm 1 mps 693 mmHg 55%
01:00 +24°C° 0 mm 1 mps 693 mmHg 56%
02:00 +23°C° 0 mm 1 mps 692 mmHg 57%
03:00 +23°C° 0 mm 1 mps 692 mmHg 57%
04:00 +23°C° 0 mm 1 mps 692 mmHg 58%
05:00 +23°C° 0 mm 1 mps 692 mmHg 58%
06:00 +24°C° 0 mm 1 mps 693 mmHg 54%
07:00 +26°C° 0 mm 1 mps 693 mmHg 50%
08:00 +28°C° 0 mm 1 mps 694 mmHg 46%
09:00 +29°C° 0 mm 2 mps 694 mmHg 43%
10:00 +30°C° 0 mm 2 mps 694 mmHg 40%
11:00 +33°C° 0 mm 3 mps 694 mmHg 38%
12:00 +33°C° 0 mm 4 mps 693 mmHg 37%
13:00 +34°C° 0 mm 4 mps 692 mmHg 36%
14:00 +34°C° 0 mm 5 mps 691 mmHg 36%
15:00 +33°C° 0 mm 4 mps 691 mmHg 37%
16:00 +33°C° 0 mm 4 mps 690 mmHg 39%
17:00 +32°C° 0 mm 4 mps 690 mmHg 40%
18:00 +29°C° 0 mm 3 mps 691 mmHg 44%
19:00 +28°C° 0 mm 2 mps 691 mmHg 47%
20:00 +26°C° 0 mm 2 mps 692 mmHg 50%
21:00 +26°C° 0 mm 1 mps 692 mmHg 51%
22:00 +26°C° 0 mm 1 mps 692 mmHg 51%
23:00 +26°C° 0 mm 1 mps 693 mmHg 51%

10 August, Monday

Time Temperature Precipitation Wind Pressure Humidity
00:00 +25°C° 0 mm 1 mps 692 mmHg 51%
01:00 +25°C° 0 mm 1 mps 692 mmHg 52%
02:00 +24°C° 0 mm 1 mps 692 mmHg 52%
03:00 +24°C° 0 mm 1 mps 691 mmHg 53%
04:00 +24°C° 0 mm 1 mps 691 mmHg 53%
05:00 +24°C° 0 mm 1 mps 691 mmHg 54%
06:00 +25°C° 0 mm 1 mps 692 mmHg 49%
07:00 +27°C° 0 mm 1 mps 693 mmHg 45%
08:00 +29°C° 0 mm 1 mps 693 mmHg 40%
09:00 +31°C° 0 mm 2 mps 693 mmHg 37%
10:00 +34°C° 0 mm 3 mps 693 mmHg 33%
11:00 +35°C° 0 mm 3 mps 693 mmHg 30%
12:00 +35°C° 0 mm 4 mps 692 mmHg 30%
13:00 +35°C° 0 mm 4 mps 691 mmHg 30%
14:00 +35°C° 0 mm 5 mps 690 mmHg 30%
15:00 +34°C° 0 mm 5 mps 690 mmHg 32%
16:00 +34°C° 0 mm 4 mps 690 mmHg 34%
17:00 +33°C° 0 mm 4 mps 689 mmHg 35%
18:00 +30°C° 0 mm 4 mps 690 mmHg 40%
19:00 +28°C° 0 mm 3 mps 691 mmHg 45%
20:00 +27°C° 0 mm 2 mps 691 mmHg 50%
21:00 +26°C° 0 mm 2 mps 692 mmHg 50%
22:00 +26°C° 0 mm 1 mps 692 mmHg 49%
23:00 +26°C° 0 mm 1 mps 692 mmHg 49%

11 August, Tuesday

Time Temperature Precipitation Wind Pressure Humidity
00:00 +25°C° 0 mm 1 mps 692 mmHg 50%
01:00 +25°C° 0 mm 1 mps 692 mmHg 51%
02:00 +24°C° 0 mm 1 mps 691 mmHg 52%
03:00 +24°C° 0 mm 1 mps 692 mmHg 53%
04:00 +24°C° 0 mm 1 mps 692 mmHg 54%
05:00 +23°C° 0 mm 1 mps 692 mmHg 54%
06:00 +26°C° 0 mm 1 mps 693 mmHg 49%
07:00 +28°C° 0 mm 1 mps 693 mmHg 44%
08:00 +30°C° 0 mm 1 mps 694 mmHg 38%
09:00 +32°C° 0 mm 2 mps 694 mmHg 34%
10:00 +34°C° 0 mm 2 mps 694 mmHg 30%
11:00 +36°C° 0 mm 2 mps 693 mmHg 26%
12:00 +36°C° 0 mm 3 mps 692 mmHg 27%
13:00 +36°C° 0 mm 4 mps 691 mmHg 28%
14:00 +35°C° 0 mm 5 mps 690 mmHg 29%
15:00 +35°C° 0 mm 5 mps 690 mmHg 32%
16:00 +34°C° 0 mm 5 mps 690 mmHg 35%
17:00 +33°C° 0 mm 5 mps 690 mmHg 38%
18:00 +30°C° 0 mm 4 mps 690 mmHg 41%
19:00 +29°C° 0 mm 3 mps 691 mmHg 45%
20:00 +27°C° 0 mm 2 mps 692 mmHg 49%
21:00 +27°C° 0 mm 2 mps 692 mmHg 48%
22:00 +26°C° 0 mm 1 mps 692 mmHg 48%
23:00 +26°C° 0 mm 1 mps 693 mmHg 47%

12 August, Wednesday

Time Temperature Precipitation Wind Pressure Humidity
00:00 +25°C° 0 mm 1 mps 692 mmHg 49%
01:00 +25°C° 0 mm 1 mps 692 mmHg 50%
02:00 +24°C° 0 mm 1 mps 692 mmHg 52%
03:00 +24°C° 0 mm 1 mps 692 mmHg 53%
04:00 +24°C° 0 mm 1 mps 692 mmHg 53%
05:00 +24°C° 0 mm 2 mps 692 mmHg 54%
06:00 +26°C° 0 mm 1 mps 693 mmHg 50%
07:00 +28°C° 0 mm 1 mps 693 mmHg 45%
08:00 +30°C° 0 mm 1 mps 694 mmHg 41%
09:00 +32°C° 0 mm 1 mps 694 mmHg 37%
10:00 +33°C° 0 mm 1 mps 693 mmHg 33%
11:00 +36°C° 0 mm 2 mps 693 mmHg 29%
12:00 +35°C° 0 mm 3 mps 692 mmHg 31%
13:00 +35°C° 0 mm 4 mps 692 mmHg 33%
14:00 +34°C° 0 mm 5 mps 691 mmHg 36%
15:00 +34°C° 0 mm 5 mps 691 mmHg 38%
16:00 +33°C° 0 mm 5 mps 691 mmHg 40%
17:00 +32°C° 0 mm 4 mps 691 mmHg 42%
18:00 +30°C° 0 mm 4 mps 691 mmHg 46%
19:00 +29°C° 0 mm 3 mps 691 mmHg 50%
20:00 +27°C° 0 mm 3 mps 692 mmHg 54%
21:00 +27°C° 0 mm 2 mps 692 mmHg 54%
22:00 +26°C° 0 mm 2 mps 692 mmHg 54%
23:00 +26°C° 0 mm 1 mps 693 mmHg 54%
Show more